DELTA 1 DEB

Satellite information

Favourite Embed

Satellite Type and Status

DEBRISIN ORBIT

Key statistics

Satellite DELTA 1 DEB at a glance.

Uptime

18407

Days in orbit

Revolutions

≈ 12.8

Per day

Orbit

SSO

Sun Synchronous Orbit

Inclination

99.7

Latest

Satellite identification and parameters

Extended collection of information and parameters for DELTA 1 DEB.

Object identification

Identified? True

Debris? True

Object name: DELTA 1 DEB

International designator: 1975-052DZ

Object number (NORAD): 21441

Object ID (CCSDS): 21441

Country: UNITED STATES OF AMERICA (US)

Current information (Y/N): Y

RCS size: SMALL

Orbital parameters

Period: 112.131 minutes

Inclination: 99.6873 deg

SMA: 7702.697 km

Apoapsis: 1557.582 km

Periapsis: 1091.543 km

RAAN: 90.0435 deg

Eccentricy: 0.0302517

Argument of periapsis: 289.0135 deg

Mean anomaly: 257.1799 deg

Mean motion: 12.84217285 rev/day

Mean motion (dot): 0.0000012 rev/day2

B* drag term: 0.00053874837 1/REarth

Two-line elements (TLE)

Creation date: Nov. 2, 2025, 5:34 p.m.

Reference frame: TEME

Reference center: EARTH

Epoch: Nov. 2, 2025, 3:54 a.m. UTC

TLE line 0: 0 DELTA 1 DEB

TLE line 1: 1 21441U 75052DZ 25306.16312172 .00000120 00000-0 53875-3 0 9994

TLE line 2: 2 21441 99.6873 90.0435 0302517 289.0135 257.1799 12.84217285616433

Live tracking on map

Real-time ground track for satellite DELTA 1 DEB.

In-orbit conjunctions

A list of the most updated potential collisions computed for object DELTA 1 DEB.

Target Orbit TCA Probability of collision Miss distance Type
COSMOS 738 LEO 2025-01-04 20:31:25 0.0002561603 295.0 (m) PAYLOAD
COSMOS 533 LEO 2024-06-04 05:29:18 0.0121005 38.0 (m) PAYLOAD

Associated space launch

Experimental meteorological satellite

DELTA 1 DEB was lifted into orbit during the mission ‘Delta 2910 | Nimbus 6’, on board a Delta 2910 space rocket.

The launch took place on June 12, 1975, 8:12 a.m. from Space Launch Complex 2W.

For more information about the launch, click the button.

Launch to space Delta 2910 | Nimbus 6
Delta 2910 | Nimbus 6

Agency: N/A

Status: Launch Successful

Launch date: June 12, 1975, 8:12 a.m. UTC

Rocket: Delta 2910

Launch pad: Space Launch Complex 2W

Location: Vandenberg SFB, CA, USA

...

Latest news about this satellite

There are no fresh news available about this satellite. Check back as we update our databases every day.


Newsletter sign-up

Weekly statistics, charts and insights to help you stay on top of the space industry.